Regional Weather Roundup
Issued by NWS

Home | Current Version | Previous Version | Text Only | Print | Product List | Glossary On
Versions: 1 2 3 4 5 6 7 8 9 10 11 12 13 14 15 16 17 18 19 20 21 22 23 24 25 26 27 28 29 30 31 32 33 34 35 36 37 38 39 40 41 42 43 44 45 46 47 48 49 50
000
ASUS43 KTOP 051608
RWRKS

WEATHER ROUNDUP FOR KANSAS
NATIONAL WEATHER SERVICE GOODLAND KS
1100 AM CDT SAT SEP 05 2015

NOTE:  "FAIR" INDICATES FEW OR NO CLOUDS BELOW 12,000 FEET WITH NO
SIGNIFICANT WEATHER AND/OR OBSTRUCTIONS TO VISIBILITY.

KSZ001>006-013>018-027>032-041>047-051700-
NORTHWEST KANSAS

CITY           SKY/WX    TMP DP  RH WIND       PRES   REMARKS
GOODLAND       PTSUNNY   82  54  37 S18       29.93S
HAYS           PTSUNNY   86  63  45 S21       29.94F
HILL CITY      CLOUDY    84  62  47 S17G26    29.92R
RUSSELL        MOSUNNY   88  65  46 S30G36    29.94F
$$

KSZ061>065-074>080-084>089-051700-
SOUTHWEST KANSAS

CITY           SKY/WX    TMP DP  RH WIND       PRES   REMARKS
DODGE CITY     SUNNY     83  62  49 S18       29.99S
ELKHART          N/A     85  58  40 SW7         N/A
GARDEN CITY    MOSUNNY   86  60  41 S15       29.97S
GREAT BEND     PTSUNNY   88  64  45 S23G30    29.97S
LIBERAL        SUNNY     88  61  40 SW14      30.01S
PRATT          PTSUNNY   82  63  51 MISG      30.02S
$$

KSZ066>073-081>083-090>101-051700-
SOUTHEAST KANSAS

CITY           SKY/WX    TMP DP  RH WIND       PRES   REMARKS
CHANUTE        SUNNY     85  71  63 SW15      30.05S
COFFEYVILLE    SUNNY     86  73  65 S10       30.04S
HUTCHINSON     PTSUNNY   87  67  51 S16       30.01S
MEDICINE LODGE   N/A     85  68  56 S13G20    30.00S
NEWTON         PTSUNNY   86  66  51 S14G22    30.05S
PARSONS        SUNNY     85  73  67 S9        30.06S
WICHITA INTL   PTSUNNY   87  69  54 S16       30.01S
WICHITA JABRA  PTSUNNY   83  70  64 S13       30.02S
WICHITA MCCONL PTSUNNY   85  67  56 SE14      30.02S
WINFIELD       PTSUNNY   88  70  55 S12       30.03F
$$

KSZ007>012-019>026-033>040-048>060-102>105-051700-
NORTHEAST KANSAS

CITY           SKY/WX    TMP DP  RH WIND       PRES   REMARKS
CONCORDIA      PTSUNNY   85  68  56 S21G28    29.96S
EMPORIA        MOSUNNY   85  69  58 S14G23    30.03S
LAWRENCE       SUNNY     87  71  58 S9        30.02S
MANHATTAN      MOSUNNY   89  68  49 S15       29.98F
MARYSVILLE     SUNNY     88  70  55 S14G28    29.98S
OLATHE IND     SUNNY     86  71  60 S12       30.05R
OLATHE EXE     SUNNY     83  71  67 S10       30.04S
SALINA         PTSUNNY   87  67  51 S24       29.98S
TOPEKA BILLARD SUNNY     87  71  58 S10       30.00F
TOPEKA FORBES  SUNNY     88  72  58 S14       30.01F
$$



USA.gov is the U.S. government's official web portal to all federal, state and local government web resources and services.